Location: Cheshmeh Sh?r
(30.5203°N, 60.4764°E)
Time: 03:40:28
(UTC+00:00)

Daily predictions for brighter satellites

Satellite Brightness Start Highest point End
(mag) Time Altitude Azimuth Time Altitude Azimuth Time Altitude Azimuth
ADEOS 4.3 00:03:18 10° NNE 00:08:24 52° E 00:13:27 10° S
Cosmos 44 3.9 00:09:44 50° SSW 00:09:44 50° SSW 00:13:52 10° SSE
USA 238 DEB 4.5 00:10:19 32° NNW 00:10:19 32° NNW 00:15:04 10° NNE
USA 238 4.5 00:10:22 32° NNW 00:10:22 32° NNW 00:15:11 10° NNE
CZ-4B R/B 4.2 00:07:15 10° ESE 00:09:45 19° ENE 00:12:15 10° NNE
EPKM 4.0 00:08:55 45° SW 00:10:38 60° SSE 00:31:25 10° E
Cosmos 1356 Rocket 4.2 00:11:45 10° N 00:15:53 51° E 00:19:56 10° SSE
CZ-2C R/B 2.2 00:18:58 35° ENE 00:18:58 35° ENE 00:21:09 10° E
Meteor 1-31 Rocket 4.3 00:14:43 10° NNE 00:18:22 36° E 00:21:59 10° SSE
Cosmos 1269 Rocket 3.9 00:19:13 58° SW 00:20:04 69° WNW 00:25:22 10° N
Cosmos 1544 Rocket 3.8 00:21:13 53° SSW 00:21:13 53° SSW 00:24:43 10° S
Cosmos 1626 4.2 00:17:50 10° SSE 00:21:00 28° E 00:24:12 10° NNE
Cosmos 2279 Rocket 3.9 00:16:25 10° N 00:22:38 89° E 00:28:48 10° S
Cosmos 1634 Rocket 4.1 00:18:17 10° NNW 00:24:22 51° W 00:30:24 10° SSW
ATLAS 3B R/B 3.0 00:22:06 10° SSW 00:28:34 61° ESE 00:35:02 10° NE
Cosmos 1110 Rocket 3.9 00:24:36 10° NNW 00:29:47 87° ENE 00:34:57 10° SSE
Cosmos 292 Rocket 4.4 00:27:35 10° N 00:32:22 57° ENE 00:37:08 10° SSE
Geosat 4.3 00:28:19 10° SE 00:33:17 66° ENE 00:38:16 10° NNW
FENGYUN 3A 3.5 00:36:40 10° N 00:42:07 78° WNW 00:47:31 10° SSW
Lacrosse 4 Rocket 2.4 00:44:10 28° NNW 00:44:10 28° NNW 00:46:49 10° N
H-2A R/B 2.7 00:39:10 10° SSW 00:42:58 36° WSW 00:42:58 36° WSW
CZ-2C R/B 3.9 00:44:54 10° NNW 00:47:00 19° NW 00:47:00 19° NW
ADEOS Rocket 3.1 00:49:00 10° SSW 00:54:13 40° W 00:59:21 10° NNW
Cosmos 1953 2.9 00:56:25 19° NW 00:58:43 33° W 01:02:21 10° SSW
ISS -2.9 00:58:39 30° NW 00:58:59 31° NW 01:02:01 10° NNE
SL-14 R/B 3.3 00:55:07 10° S 00:59:02 85° E 01:03:01 10° N
deb Kosmos-1763 3.9 00:55:54 10° SSW 00:59:29 86° WNW 01:03:04 10° NNE
Meteor 1-24 Rocket 3.8 00:59:54 10° S 01:05:21 82° E 01:11:02 10° N
TELKOM 3 4.4 01:04:54 29° WNW 01:05:47 35° NW 01:09:09 10° NNE
Cosmos 1908 3.3 01:02:57 10° NNW 01:06:46 53° W 01:10:34 10° S
USA 290 2.5 01:04:55 10° S 01:08:05 67° ESE 01:11:16 10° NNE
ALOS 2.8 01:04:07 10° N 01:08:23 36° WNW 01:12:38 10° SW
Cosmos 1892 Rocket 3.9 01:06:17 10° S 01:10:34 67° E 01:14:53 10° NNE
deb Chang Zheng 4 4.1 01:07:04 10° N 01:10:53 33° WNW 01:14:43 10° SW
CZ-4B R/B 2.8 01:08:21 10° N 01:12:23 78° WNW 01:16:38 10° SSW
Cosmos 1833 Rocket 3.1 01:10:22 10° SW 01:15:34 38° WNW 01:20:49 10° N
ERS-2 3.0 01:12:53 10° SSW 01:16:03 28° W 01:19:13 10° NW
Cosmos 1092 Rocket 3.9 01:11:20 10° S 01:17:28 76° W 01:23:39 10° N
Cosmos 2251 Rocket 3.5 01:13:29 10° SSW 01:18:50 76° WNW 01:24:13 10° NNE
Meteor 2-5 Rocket 3.8 01:14:28 10° SSW 01:19:55 53° W 01:25:31 10° N
SKYMED 2 3.6 01:18:22 10° SSE 01:22:41 84° ENE 01:27:02 10° N
DELTA 2 R/B (1) 4.1 01:18:27 11° NW 01:23:42 54° NNE 01:29:12 10° E
Nadezhda 4 Rocket 4.5 01:20:47 10° SW 01:26:17 35° W 01:31:50 10° NNW
Cosmos 1484 Rocket 4.3 01:26:51 10° NNW 01:29:12 16° WNW 01:31:31 10° WSW
Cosmos 2082 Rocket 2.3 01:23:54 10° SW 01:29:22 55° WNW 01:34:52 10° N
Cosmos 1689 Rocket 1.9 01:27:24 10° S 01:30:19 69° W 01:33:15 10° NNW
SAR-Lupe-4 4.0 01:27:08 10° S 01:30:30 39° W 01:33:52 10° NNW
Okean O Rocket 4.4 01:27:12 10° NE 01:30:43 24° E 01:34:13 10° SSE
Cosmos 1300 2.7 01:29:07 10° N 01:32:56 88° E 01:36:44 10° S
Cosmos 2084 3.4 01:31:08 10° SSW 01:35:24 82° WNW 01:39:46 10° NNE
Lacrosse 5 rocket 2.9 01:33:59 10° W 01:36:11 15° NW 01:38:24 10° N
CENTAUR R/B 4.2 01:34:17 10° WNW 01:36:41 12° NW 01:39:13 10° NNW
CZ-4B R/B 3.1 01:39:38 10° SW 01:41:51 16° W 01:44:04 10° NW
USA 267 4.3 01:35:53 10° NE 01:42:11 49° SE 01:48:26 10° SSW
H-2A R/B 2.7 01:41:15 10° NNE 01:45:39 85° ESE 01:49:50 10° SSW
